Location: Timmins
(48.4758°N, 81.3305°W)
Time: 05:54:33
(UTC-04:00)

ISS - Visible Passes

Search period start: 07 July 2020 00:00
Search period end: 17 July 2020 00:00
Orbit: 417 x 421 km, 51.6° (Epoch: 07 July)

Date Brightness Start Highest point End Pass type
(mag) Time Alt. Az. Time Alt. Az. Time Alt. Az.
07 Jul -3.9 02:49:29 46° SW 02:50:19 71° SSE 02:53:39 10° ENE visible
07 Jul -2.8 04:23:58 10° W 04:27:14 49° N 04:30:32 10° ENE visible
08 Jul -3.2 02:03:17 43° ESE 02:03:17 43° ESE 02:06:01 10° ENE visible
08 Jul -3.1 03:36:15 10° W 03:39:33 55° N 03:42:52 10° ENE visible
09 Jul -1.8 01:17:01 19° E 01:17:01 19° E 01:18:16 10° E visible
09 Jul -3.5 02:49:56 23° W 02:51:52 66° NNW 02:55:14 10° ENE visible
09 Jul -2.7 04:25:41 10° WNW 04:28:58 47° N 04:32:14 10° E visible
10 Jul -3.8 02:03:34 56° WSW 02:04:13 85° NNW 02:07:35 10° ENE visible
10 Jul -2.7 03:37:58 10° WNW 03:41:14 46° N 03:44:30 10° ENE visible
11 Jul -3.6 01:17:04 57° E 01:17:04 57° E 01:19:55 10° ENE visible
11 Jul -2.8 02:50:13 10° W 02:53:30 49° N 02:56:47 10° ENE visible
11 Jul -3.2 04:27:16 10° WNW 04:30:36 61° NNE 04:33:56 10° E visible
12 Jul -2.5 00:30:20 29° E 00:30:20 29° E 00:32:14 10° ENE visible
12 Jul -3.1 02:03:12 15° W 02:05:46 55° NNW 02:09:05 10° ENE visible
12 Jul -2.9 03:39:35 10° WNW 03:42:53 52° N 03:46:11 10° E visible
12 Jul -2.2 23:42:57 21° E 23:42:57 21° E 23:44:27 10° E visible
13 Jul -3.5 01:15:44 18° W 01:18:03 67° NNW 01:21:25 10° ENE visible
13 Jul -2.7 02:51:52 10° WNW 02:55:08 47° N 02:58:24 10° E visible
13 Jul -3.8 04:28:44 10° WNW 04:32:06 81° SSW 04:35:28 10° ESE visible
13 Jul -2.6 22:51:12 10° SSW 22:53:51 22° SE 22:56:31 10° E visible
14 Jul -3.8 00:26:59 10° WSW 00:30:21 85° NNW 00:33:43 10° ENE visible
14 Jul -2.7 02:04:06 10° WNW 02:07:22 46° N 02:10:38 10° ENE visible
14 Jul -3.6 03:41:03 10° WNW 03:44:25 76° NNE 03:47:47 10° ESE visible
14 Jul -2.0 22:04:25 10° S 22:06:21 15° SE 22:08:18 10° E visible
14 Jul -3.9 23:39:19 10° WSW 23:42:40 70° SSE 23:46:02 10° ENE visible
15 Jul -2.8 01:16:19 10° W 01:19:36 49° N 01:22:52 10° ENE visible
15 Jul -3.2 02:53:21 10° WNW 02:56:41 60° NNE 03:00:01 10° E visible
15 Jul -3.3 04:30:15 10° WNW 04:33:25 39° SSW 04:36:34 10° SE visible
15 Jul -3.6 22:51:46 10° SW 22:55:01 48° SSE 22:58:17 10° ENE visible
16 Jul -3.1 00:28:30 10° W 00:31:48 55° NNW 00:35:08 10° ENE visible
16 Jul -2.9 02:05:37 10° WNW 02:08:55 51° N 02:12:13 10° E visible
16 Jul -3.8 03:42:29 10° WNW 03:45:47 58° SSW 03:49:05 10° SE visible
16 Jul -3.0 22:04:22 10° SSW 22:07:24 32° SE 22:10:27 10° E visible
16 Jul -3.4 23:40:42 10° W 23:44:03 67° NNW 23:47:25 10° ENE visible
